RH
94 92 93 93 90 76 99 96 100 97 98 90 86 75 74 69 69 100 97 90 100 100 100 99 98 98 99 100 96 95 93 85 75 42 46 58 76 74
94 93 91 94 93 92 92 100 98 99 98 94 85 78 75 68 86 100 96 94 100 100 99 97 100 94 99 100 100 99 97 77 51 53 49 40 67 92
96 97 94 96 91 83 87 96 99 98 99 100 98 85 81 82 86 85 82 87 99 100 100 100 100 100 100 99 99 98 77 59 58 53 48 32 22 92
99 99 93 93 96 90 89 84 88 91 100 100 99 97 94 89 88 93 93 98 100 100 100 100 100 99 100 97 96 83 66 62 59 56 37 17 15 40
100 100 96 94 93 88 89 86 90 91 96 100 100 100 100 99 98 100 100 98 100 100 100 100 100 98 100 98 99 96 75 68 61 40 16 16 15 16
100 98 99 97 100 99 99 96 95 97 100 100 100 100 96 99 100 100 100 100 100 100 100 100 100 99 99 99 95 86 67 39 21 18 17 16 16 15
100 98 99 95 99 99 100 93 93 97 100 89 97 100 97 100 98 99 100 100 100 100 100 100 100 99 100 92 81 45 21 19 19 17 16 16 17 17
99 99 100 98 98 100 100 100 99 100 93 100 100 99 96 98 100 100 100 100 100 100 100 100 99 92 73 46 20 18 18 17 17 18 18 18 18 17
98 99 99 100 100 99 97 94 100 100 100 100 100 100 100 100 100 100 100 100 100 100 100 94 90 46 20 18 18 21 20 18 17 18 19 19 19 20
93 92 97 91 97 99 100 99 100 100 100 100 100 100 99 100 100 100 100 100 99 97 44 20 20 24 24 23 26 31 35 31 23 24 28 28 29 32
94 98 97 92 98 100 100 99 100 99 99 100 100 99 99 100 100 100 97 96 69 34 23 28 28 32 38 40 41 41 34 43 46 46 46 45 43 46
89 83 64 63 93 99 99 100 98 96 96 92 87 82 86 95 85 66 59 34 26 30 32 34 38 38 38 38 39 42 46 47 48 47 46 45 43 47
44 24 24 30 34 47 60 58 43 44 35 27 28 28 27 26 29 30 31 29 34 38 38 38 40 41 42 42 43 44 46 49 54 59 57 51 50 49
22 20 22 22 23 24 26 26 28 37 48 52 48 42 37 34 34 34 35 37 39 40 42 44 46 49 52 54 52 48 51 54 58 61 63 63 60 57
24 31 43 47 46 51 56 56 54 47 41 41 42 42 40 39 39 39 40 42 43 44 44 45 45 46 55 60 61 49 57 64 66 68 68 64 60 54
52 51 44 50 65 67 59 51 45 42 42 42 40 38 38 39 41 42 45 46 45 45 44 43 44 44 46 48 55 49 59 82 66 70 75 72 65 58
58 49 55 63 62 62 58 49 41 36 34 34 36 37 40 42 43 44 43 42 42 42 44 46 50 52 54 54 57 53 66 72 75 84 86 76 62 56
62 62 65 72 76 69 51 38 35 34 34 34 36 37 39 41 42 43 44 47 49 51 54 58 60 66 67 62 70 83 86 83 77 79 84 92 63 53
63 73 82 74 57 41 40 40 41 41 42 44 45 47 48 50 54 59 62 70 87 92 84 84 90 93 96 100 100 98 86 81 82 72 71 69 71 59
58 49 42 41 42 42 40 39 40 41 42 44 46 49 53 58 65 73 84 93 98 98 97 98 100 100 100 100 100 90 90 81 72 69 69 72 68 59
37 39 40 41 42 41 47 70 81 83 82 81 81 81 81 81 82 82 83 87 92 99 100 100 100 99 97 92 85 69 67 69 71 75 78 81 74 69
43 45 46 45 48 69 75 66 54 51 50 49 49 50 51 55 60 64 84 99 100 100 92 82 75 75 77 84 80 79 68 64 67 71 73 76 83 97
45 44 56 72 69 51 44 45 47 49 50 52 53 54 56 59 63 72 78 83 82 81 86 85 84 84 81 82 87 80 75 70 71 70 61 73 76 76
Wind_Speed
26 25 24 23 23 37 25 33 29 23 19 21 23 21 20 19 21 20 21 17 29 32 28 28 29 29 28 30 30 28 24 25 25 23 21 20 21 20
29 29 27 25 25 25 32 30 29 29 24 16 19 21 19 19 19 18 20 17 29 37 31 33 31 29 29 27 24 24 25 25 25 24 23 22 21 20
26 30 28 26 26 27 26 30 31 29 25 25 23 21 20 20 21 21 21 21 22 28 32 34 32 28 23 25 25 24 23 26 25 24 23 23 23 19
20 23 26 25 26 28 28 26 31 30 29 28 28 27 25 23 22 20 20 22 25 27 31 30 27 23 20 21 23 21 24 25 24 23 23 22 22 21
20 19 22 23 26 27 28 27 25 26 28 29 32 28 26 24 24 21 21 21 24 26 27 27 24 21 20 21 19 18 23 25 24 23 22 23 22 22
19 17 20 21 21 23 24 23 24 25 26 30 31 30 23 27 24 24 25 26 27 26 26 25 21 16 18 18 16 21 22 22 20 20 20 21 21 20
13 18 15 20 17 18 19 19 22 19 19 20 22 24 25 23 22 24 26 26 26 25 23 20 15 14 14 15 18 19 18 18 18 19 19 19 19 19
8 11 13 12 15 17 16 18 16 23 16 24 21 20 18 23 23 25 25 25 21 20 17 15 12 10 14 15 15 15 15 16 15 16 18 19 20 21
4 6 4 3 5 7 6 8 12 16 15 17 21 22 20 18 19 21 20 19 16 11 12 8 7 10 12 11 10 11 12 13 15 17 20 21 22 22
6 7 5 7 4 3 1 2 3 5 6 7 6 6 5 6 6 5 10 11 9 5 6 5 6 6 6 7 7 9 12 12 12 13 15 16 17 19
10 9 9 8 12 12 8 6 2 2 6 10 9 7 8 8 6 5 6 9 9 8 8 6 5 4 4 5 5 5 6 13 15 16 19 20 20 23
8 8 8 8 10 10 10 11 15 14 10 10 10 9 7 9 10 10 8 9 6 6 7 6 4 2 2 3 5 9 12 15 18 20 21 21 24 26
10 12 13 13 13 13 12 12 14 15 15 13 13 12 12 10 9 9 9 7 5 3 5 5 5 5 5 8 10 12 14 18 20 23 24 24 24 25
14 17 18 18 19 18 18 18 18 16 14 12 11 10 8 7 6 6 6 4 4 4 5 7 8 10 11 14 15 17 19 21 24 25 23 22 25 29
18 18 17 16 16 16 15 14 12 10 10 8 7 5 4 3 3 2 2 4 6 8 10 11 14 16 17 18 20 22 25 28 26 23 28 28 30 31
16 15 14 14 12 11 10 9 8 7 6 5 4 3 1 1 4 6 8 10 12 13 14 16 18 19 21 22 24 26 26 27 30 29 30 32 32 34
11 11 9 8 8 7 7 7 6 5 5 5 5 5 6 7 9 11 13 15 16 19 20 20 20 22 23 25 28 29 29 30 28 30 29 35 36 33
6 5 4 4 5 6 7 7 7 7 8 8 9 10 11 13 14 16 17 18 19 21 23 23 23 23 26 27 25 25 26 28 28 31 33 32 37 32
2 4 4 4 5 6 7 7 9 10 11 12 12 13 14 15 16 17 18 18 21 23 22 22 22 21 23 21 20 24 25 28 33 35 31 30 34 36
4 4 5 5 6 8 9 10 11 12 13 13 14 15 15 16 16 17 19 20 20 19 20 19 19 18 17 21 25 28 28 30 28 29 30 31 33 34
4 5 6 6 7 7 8 10 12 14 14 15 15 16 16 17 17 18 19 18 18 17 16 15 17 20 22 25 27 29 26 22 24 27 30 32 35 37
5 5 6 6 7 9 12 12 13 13 14 14 14 14 14 14 14 14 13 13 12 14 15 17 17 16 16 18 22 26 28 28 26 26 27 27 29 31
5 5 6 8 10 11 12 12 11 11 12 13 13 13 13 13 13 12 12 12 12 13 14 16 16 16 18 20 24 27 28 30 31 32 30 26 26 28
Wind_Direction
263 266 266 265 261 255 259 249 248 241 245 250 254 254 261 260 257 232 228 254 238 240 226 222 213 217 218 219 221 231 246 257 263 265 268 261 269 272
258 261 264 264 266 268 254 263 251 246 246 249 244 255 257 258 241 225 236 241 238 230 230 238 216 228 220 230 237 240 248 255 262 264 262 261 258 262
262 260 261 262 262 263 264 258 260 250 250 239 245 250 246 243 236 241 246 246 240 234 241 227 228 226 230 234 240 248 253 259 262 263 265 263 261 257
274 263 263 260 257 258 259 258 259 260 257 253 249 249 246 242 240 234 233 238 236 240 234 232 227 232 232 246 247 253 261 261 264 265 264 264 262 259
266 266 267 263 260 257 255 260 258 257 260 259 251 237 247 243 235 226 228 233 227 229 227 226 231 231 245 247 253 261 260 260 260 261 262 262 264 263
270 275 265 266 259 253 256 257 261 261 258 253 243 231 237 240 232 228 225 222 222 224 228 231 233 239 249 253 263 260 257 259 263 266 267 267 269 267
278 277 267 263 268 263 257 257 264 259 258 247 247 244 237 231 226 227 226 223 223 226 229 229 234 242 253 258 255 258 262 264 265 268 270 271 272 272
303 280 278 266 259 273 249 254 253 255 248 250 241 243 241 243 237 231 222 218 217 224 228 234 232 249 257 255 259 263 265 269 269 270 272 271 272 274
59 59 9 327 290 278 264 288 257 237 242 248 246 251 244 249 238 225 221 218 217 220 214 236 240 244 247 249 251 259 265 272 277 277 275 276 278 280
80 74 49 30 32 34 13 203 219 215 222 210 192 164 167 171 167 192 212 199 194 192 198 203 207 224 242 257 272 282 285 286 285 284 283 282 282 283
91 76 60 71 78 75 40 31 63 161 131 121 130 160 144 130 134 166 175 187 184 189 193 198 198 212 257 282 300 314 300 300 295 291 290 287 285 288
85 78 76 73 83 79 73 80 100 96 98 106 118 132 152 155 156 156 170 172 178 177 193 195 200 243 283 275 312 313 309 307 301 295 288 285 290 289
96 95 87 85 86 85 89 93 95 99 104 108 111 113 119 127 139 150 161 170 176 180 186 219 234 264 273 282 295 308 313 315 311 301 293 291 289 288
100 96 93 92 89 89 92 90 89 91 92 95 99 105 114 125 140 153 164 186 221 246 256 266 278 282 285 290 296 303 308 313 309 303 300 300 297 294
99 96 95 91 92 92 87 86 87 90 96 94 88 90 102 122 152 185 250 281 281 284 286 288 289 288 287 289 291 298 306 314 311 303 302 302 301 300
99 94 94 91 80 73 69 64 63 66 64 55 50 48 32 298 278 277 282 288 292 294 294 294 292 290 289 290 290 294 301 305 308 304 302 300 301 304
100 100 93 80 69 59 50 41 32 25 11 356 341 324 307 295 292 293 295 298 299 299 299 296 294 291 290 290 290 292 297 301 302 303 300 301 303 305
99 90 60 34 28 28 7 1 357 348 335 323 314 306 302 300 298 298 298 300 301 301 299 296 296 296 295 293 294 297 296 300 304 305 305 301 304 306
352 354 25 13 348 345 342 337 330 324 319 315 312 308 304 300 297 296 296 296 301 301 297 296 298 299 300 292 299 295 300 304 308 306 304 303 304 307
319 330 335 336 335 334 334 333 329 323 319 315 310 307 304 302 301 299 300 304 305 303 301 302 305 303 295 295 296 294 294 302 305 304 306 308 304 306
320 329 331 329 330 331 331 329 325 321 318 315 312 311 310 308 305 303 303 303 302 303 301 300 290 297 300 299 298 305 312 310 307 307 311 308 308 310
325 328 327 325 325 326 326 325 323 321 320 318 318 319 321 323 323 322 322 320 315 309 308 310 318 319 318 313 312 314 317 319 318 313 309 307 305 293
332 330 332 329 327 328 327 328 332 335 335 336 337 337 337 337 337 338 338 338 337 338 336 331 330 327 325 321 318 318 319 322 324 321 316 324 316 313